| time (UTC) | temp F | wind direction | speed knots | gust knots | rain 1hr in | rain 24hr in | rain mn in | humidity % | barometer mb |
| 20260509224136 | 60 | 114 | 1.7 | 4.3 | 0.00 | 0.00 | 0.00 | 66 | 1010.1 |
| 20260509223633 | 60 | 35 | 0.0 | 2.6 | 0.00 | 0.00 | 0.00 | 65 | 1010.2 |
| 20260509223130 | 61 | 88 | 0.0 | 5.2 | 0.00 | 0.00 | 0.00 | 65 | 1010.1 |
| 20260509222627 | 60 | 136 | 2.6 | 5.2 | 0.00 | 0.00 | 0.00 | 66 | 1010.4 |
| 20260509222122 | 60 | 144 | 2.6 | 3.5 | 0.00 | 0.00 | 0.00 | 65 | 1010.6 |
| 20260509221618 | 60 | 150 | 1.7 | 7.0 | 0.00 | 0.00 | 0.00 | 64 | 1010.4 |
| 20260509221114 | 61 | 150 | 4.3 | 7.8 | 0.00 | 0.00 | 0.00 | 62 | 1010.5 |
| 20260509220610 | 60 | 125 | 1.7 | 11.3 | 0.00 | 0.00 | 0.00 | 63 | 1010.5 |
| 20260509220107 | 61 | 133 | 1.7 | 4.3 | 0.00 | 0.00 | 0.00 | 66 | 1010.4 |
| 20260509215602 | 61 | 180 | 1.7 | 9.6 | 0.00 | 0.00 | 0.00 | 64 | 1010.5 |
| 20260509215100 | 61 | 148 | 1.7 | 7.8 | 0.00 | 0.00 | 0.00 | 63 | 1010.5 |
| 20260509214557 | 61 | 350 | 1.7 | 6.1 | 0.00 | 0.00 | 0.00 | 65 | 1010.4 |
| 20260509214053 | 61 | 187 | 0.0 | 7.0 | 0.00 | 0.00 | 0.00 | 61 | 1010.3 |
| 20260509213549 | 62 | 186 | 2.6 | 6.1 | 0.00 | 0.00 | 0.00 | 59 | 1010.4 |
| 20260509213046 | 61 | 161 | 1.7 | 7.0 | 0.00 | 0.00 | 0.00 | 61 | 1010.6 |
| 20260509212543 | 61 | 150 | 2.6 | 5.2 | 0.00 | 0.00 | 0.00 | 62 | 1010.4 |
| 20260509212040 | 62 | 214 | 3.5 | 7.0 | 0.00 | 0.00 | 0.00 | 62 | 1010.4 |
| 20260509211536 | 61 | 149 | 2.6 | 7.8 | 0.00 | 0.00 | 0.00 | 62 | 1010.2 |
| 20260509211033 | 61 | 147 | 2.6 | 5.2 | 0.00 | 0.00 | 0.00 | 62 | 1010.2 |
| 20260509210529 | 62 | 153 | 7.8 | 10.4 | 0.00 | 0.00 | 0.00 | 59 | 1010.1 |
| 20260509210020 | 62 | 156 | 4.3 | 6.1 | 0.00 | 0.00 | 0.00 | 61 | 1010.3 |
| 20260509205515 | 62 | 152 | 6.1 | 10.4 | 0.00 | 0.00 | 0.00 | 59 | 1010.4 |
| 20260509205010 | 64 | 110 | 2.6 | 4.3 | 0.00 | 0.00 | 0.00 | 59 | 1010.2 |
| 20260509204507 | 65 | 139 | 5.2 | 7.8 | 0.00 | 0.00 | 0.00 | 54 | 1010.3 |
| 20260509204004 | 64 | 137 | 1.7 | 4.3 | 0.00 | 0.00 | 0.00 | 61 | 1010.2 |
| 20260509203459 | 64 | 55 | 0.9 | 4.3 | 0.00 | 0.00 | 0.00 | 59 | 1010.1 |
| 20260509202957 | 65 | 127 | 1.7 | 4.3 | 0.00 | 0.00 | 0.00 | 62 | 1010.3 |
| 20260509202453 | 63 | 144 | 7.8 | 7.8 | 0.00 | 0.00 | 0.00 | 60 | 1010.3 |
| 20260509201947 | 63 | 327 | 0.9 | 5.2 | 0.00 | 0.00 | 0.00 | 59 | 1010.3 |
| 20260509201443 | 63 | 156 | 2.6 | 5.2 | 0.00 | 0.00 | 0.00 | 65 | 1010.2 |
| 20260509200940 | 63 | 320 | 0.0 | 7.0 | 0.00 | 0.00 | 0.00 | 61 | 1010.5 |
| 20260509200440 | 63 | 152 | 2.6 | 8.7 | 0.00 | 0.00 | 0.00 | 62 | 1010.3 |
| 20260509195937 | 63 | 121 | 1.7 | 3.5 | 0.00 | 0.00 | 0.00 | 61 | 1010.4 |
| 20260509195433 | 62 | 169 | 1.7 | 3.5 | 0.00 | 0.00 | 0.00 | 63 | 1010.3 |
| 20260509194932 | 62 | 91 | 2.6 | 2.6 | 0.00 | 0.00 | 0.00 | 65 | 1010.2 |
| 20260509194428 | 61 | 135 | 0.9 | 4.3 | 0.00 | 0.00 | 0.00 | 66 | 1010.3 |
| 20260509193925 | 60 | 162 | 2.6 | 4.3 | 0.00 | 0.00 | 0.00 | 62 | 1010.6 |
| 20260509193425 | 60 | 154 | 4.3 | 4.3 | 0.00 | 0.00 | 0.00 | 65 | 1010.5 |
| 20260509192921 | 60 | 153 | 2.6 | 9.6 | 0.00 | 0.00 | 0.00 | 63 | 1010.4 |
| 20260509192417 | 60 | 150 | 3.5 | 8.7 | 0.00 | 0.00 | 0.00 | 64 | 1010.3 |
| 20260509191912 | 61 | 148 | 3.5 | 5.2 | 0.00 | 0.00 | 0.00 | 65 | 1010.3 |
| 20260509191408 | 61 | 39 | 0.0 | 2.6 | 0.00 | 0.00 | 0.00 | 70 | 1010.3 |
| 20260509190904 | 61 | 137 | 1.7 | 6.1 | 0.00 | 0.00 | 0.00 | 61 | 1010.0 |
| 20260509190402 | 61 | 157 | 1.7 | 7.0 | 0.00 | 0.00 | 0.00 | 62 | 1010.5 |
| 20260509185859 | 61 | 148 | 2.6 | 5.2 | 0.00 | 0.00 | 0.00 | 64 | 1010.1 |
| 20260509185355 | 61 | 140 | 0.9 | 2.6 | 0.00 | 0.00 | 0.00 | 65 | 1010.3 |
| 20260509184853 | 60 | 157 | 2.6 | 4.3 | 0.00 | 0.00 | 0.00 | 61 | 1010.1 |
| 20260509184349 | 62 | 154 | 0.9 | 2.6 | 0.00 | 0.00 | 0.00 | 62 | 1010.0 |
| 20260509183846 | 61 | 146 | 1.7 | 3.5 | 0.00 | 0.00 | 0.00 | 58 | 1010.3 |
| 20260509183341 | 61 | 175 | 0.0 | 2.6 | 0.00 | 0.00 | 0.00 | 63 | 1010.2 |
| 20260509182838 | 60 | 139 | 1.7 | 5.2 | 0.00 | 0.00 | 0.00 | 63 | 1010.4 |
| 20260509182335 | 60 | 157 | 0.0 | 12.2 | 0.00 | 0.00 | 0.00 | 64 | 1010.1 |
| 20260509181832 | 60 | 155 | 3.5 | 8.7 | 0.00 | 0.00 | 0.00 | 60 | 1010.3 |
| 20260509181329 | 60 | 159 | 4.3 | 7.0 | 0.00 | 0.00 | 0.00 | 58 | 1010.2 |
| 20260509180827 | 60 | 164 | 0.0 | 7.0 | 0.00 | 0.00 | 0.00 | 62 | 1010.4 |
| 20260509180323 | 62 | 215 | 0.9 | 3.5 | 0.00 | 0.00 | 0.00 | 63 | 1010.3 |
| 20260509175819 | 62 | 129 | 0.9 | 3.5 | 0.00 | 0.00 | 0.00 | 60 | 1010.2 |
| 20260509175316 | 62 | 84 | 0.9 | 1.7 | 0.00 | 0.00 | 0.00 | 58 | 1010.2 |
| 20260509174812 | 61 | 66 | 0.9 | 2.6 | 0.00 | 0.00 | 0.00 | 60 | 1010.4 |
| 20260509174308 | 62 | 150 | 1.7 | 2.6 | 0.00 | 0.00 | 0.00 | 64 | 1010.2 |
| 20260509173804 | 61 | 100 | 1.7 | 6.1 | 0.00 | 0.00 | 0.00 | 59 | 1010.3 |
| 20260509173259 | 61 | 141 | 1.7 | 4.3 | 0.00 | 0.00 | 0.00 | 58 | 1010.4 |
| 20260509172755 | 59 | 133 | 2.6 | 4.3 | 0.00 | 0.00 | 0.00 | 62 | 1010.5 |
| 20260509172252 | 58 | 149 | 1.7 | 7.0 | 0.00 | 0.00 | 0.00 | 62 | 1010.3 |
| 20260509171748 | 58 | 150 | 3.5 | 3.5 | 0.00 | 0.00 | 0.00 | 65 | 1010.4 |
| 20260509171244 | 58 | 334 | 0.9 | 4.3 | 0.00 | 0.00 | 0.00 | 58 | 1010.6 |
| 20260509170741 | 58 | 127 | 0.9 | 3.5 | 0.00 | 0.00 | 0.00 | 59 | 1010.7 |
| 20260509170237 | 58 | 200 | 0.9 | 3.5 | 0.00 | 0.00 | 0.00 | 63 | 1010.7 |
| 20260509165736 | 57 | 161 | 2.6 | 7.0 | 0.00 | 0.00 | 0.00 | 64 | 1010.6 |
| 20260509165226 | 58 | 182 | 3.5 | 5.2 | 0.00 | 0.00 | 0.00 | 59 | 1010.5 |
| 20260509164722 | 58 | 123 | 6.1 | 7.8 | 0.00 | 0.00 | 0.00 | 62 | 1010.8 |
| 20260509164218 | 58 | 142 | 3.5 | 4.3 | 0.00 | 0.00 | 0.00 | 60 | 1010.5 |
| 20260509163715 | 58 | 138 | 3.5 | 7.0 | 0.00 | 0.00 | 0.00 | 63 | 1010.4 |
| 20260509163212 | 58 | 175 | 1.7 | 2.6 | 0.00 | 0.00 | 0.00 | 66 | 1010.5 |
| 20260509162709 | 58 | 140 | 1.7 | 2.6 | 0.00 | 0.00 | 0.00 | 67 | 1010.8 |
| 20260509162205 | 58 | 305 | 0.0 | 3.5 | 0.00 | 0.00 | 0.00 | 73 | 1011.2 |
| 20260509161700 | 57 | 133 | 1.7 | 4.3 | 0.00 | 0.00 | 0.00 | 67 | 1011.1 |
| 20260509161156 | 58 | 146 | 2.6 | 3.5 | 0.00 | 0.00 | 0.00 | 68 | 1011.1 |
| 20260509160652 | 57 | 119 | 3.5 | 7.0 | 0.00 | 0.00 | 0.00 | 68 | 1010.8 |
| 20260509160148 | 57 | 51 | 0.0 | 2.6 | 0.00 | 0.00 | 0.00 | 70 | 1011.0 |
| 20260509155644 | 57 | 155 | 2.6 | 4.3 | 0.00 | 0.00 | 0.00 | 71 | 1011.4 |
| 20260509155140 | 57 | 147 | 1.7 | 5.2 | 0.00 | 0.00 | 0.00 | 73 | 1011.2 |
| 20260509154636 | 57 | 113 | 1.7 | 2.6 | 0.00 | 0.00 | 0.00 | 76 | 1011.2 |
| 20260509154133 | 55 | 2 | 0.0 | 3.5 | 0.00 | 0.00 | 0.00 | 74 | 1011.5 |
| 20260509153630 | 55 | 108 | 0.9 | 2.6 | 0.00 | 0.00 | 0.00 | 75 | 1011.3 |
| 20260509153127 | 55 | 138 | 1.7 | 3.5 | 0.00 | 0.00 | 0.00 | 77 | 1011.6 |
| 20260509152623 | 54 | 136 | 1.7 | 2.6 | 0.00 | 0.00 | 0.00 | 77 | 1011.2 |
| 20260509152120 | 54 | 132 | 1.7 | 2.6 | 0.00 | 0.00 | 0.00 | 76 | 1011.3 |
| 20260509151617 | 54 | 136 | 1.7 | 2.6 | 0.00 | 0.00 | 0.00 | 79 | 1011.2 |
| 20260509151115 | 54 | 137 | 2.6 | 3.5 | 0.00 | 0.00 | 0.00 | 78 | 1011.4 |
| 20260509150612 | 54 | 135 | 0.9 | 2.6 | 0.00 | 0.00 | 0.00 | 79 | 1011.4 |
| 20260509150110 | 53 | 138 | 2.6 | 3.5 | 0.00 | 0.00 | 0.00 | 80 | 1011.3 |
| 20260509145606 | 53 | 174 | 0.0 | 3.5 | 0.00 | 0.00 | 0.00 | 80 | 1011.5 |
| 20260509145101 | 53 | 113 | 0.9 | 2.6 | 0.00 | 0.00 | 0.00 | 79 | 1011.3 |
| 20260509144558 | 53 | 152 | 0.9 | 2.6 | 0.00 | 0.00 | 0.00 | 81 | 1011.3 |
| 20260509144055 | 53 | 160 | 0.0 | 2.6 | 0.00 | 0.00 | 0.00 | 81 | 1011.3 |
| 20260509143552 | 52 | 216 | 2.6 | 3.5 | 0.00 | 0.00 | 0.00 | 81 | 1011.4 |
| 20260509143049 | 52 | 127 | 0.9 | 2.6 | 0.00 | 0.00 | 0.00 | 83 | 1011.4 |
| 20260509142544 | 52 | 137 | 1.7 | 2.6 | 0.00 | 0.00 | 0.00 | 84 | 1011.3 |
| 20260509142041 | 51 | 118 | 0.9 | 3.5 | 0.00 | 0.00 | 0.00 | 83 | 1011.4 |
| 20260509141538 | 51 | 113 | 1.7 | 2.6 | 0.00 | 0.00 | 0.00 | 84 | 1011.6 |
| 20260509141035 | 51 | 131 | 2.6 | 3.5 | 0.00 | 0.00 | 0.00 | 85 | 1011.8 |
| 20260509140531 | 52 | 126 | 1.7 | 2.6 | 0.00 | 0.00 | 0.00 | 84 | 1011.4 |
| 20260509140029 | 52 | 6 | 0.9 | 1.7 | 0.00 | 0.00 | 0.00 | 82 | 1011.6 |
| 20260509135525 | 51 | 136 | 1.7 | 2.6 | 0.00 | 0.00 | 0.00 | 84 | 1011.5 |
| 20260509135024 | 51 | 156 | 1.7 | 5.2 | 0.00 | 0.00 | 0.00 | 84 | 1011.4 |
| 20260509134520 | 51 | 129 | 2.6 | 6.1 | 0.00 | 0.00 | 0.00 | 84 | 1011.6 |
| 20260509134018 | 51 | 119 | 1.7 | 2.6 | 0.00 | 0.00 | 0.00 | 85 | 1011.4 |
| 20260509133514 | 51 | 57 | 0.0 | 2.6 | 0.00 | 0.00 | 0.00 | 83 | 1011.5 |
| 20260509133012 | 51 | 142 | 2.6 | 4.3 | 0.00 | 0.00 | 0.00 | 85 | 1011.6 |
| 20260509132510 | 51 | 127 | 0.0 | 1.7 | 0.00 | 0.00 | 0.00 | 87 | 1011.4 |
| 20260509132008 | 51 | 135 | 0.0 | 2.6 | 0.00 | 0.00 | 0.00 | 88 | 1011.3 |
| 20260509131504 | 51 | 62 | 0.0 | 3.5 | 0.00 | 0.00 | 0.00 | 85 | 1011.4 |
| 20260509131001 | 50 | 125 | 0.9 | 1.7 | 0.00 | 0.00 | 0.00 | 87 | 1011.2 |
| 20260509130456 | 50 | 128 | 0.9 | 1.7 | 0.00 | 0.00 | 0.00 | 88 | 1011.4 |
| 20260509125953 | 50 | 66 | 0.0 | 0.9 | 0.00 | 0.00 | 0.00 | 88 | 1011.6 |
| 20260509125450 | 50 | 92 | 0.9 | 1.7 | 0.00 | 0.00 | 0.00 | 89 | 1011.5 |
| 20260509124946 | 49 | 121 | 0.0 | 1.7 | 0.00 | 0.00 | 0.00 | 89 | 1011.4 |
| 20260509124444 | 49 | 115 | 0.9 | 2.6 | 0.00 | 0.00 | 0.00 | 88 | 1011.4 |
| 20260509123940 | 49 | 113 | 0.9 | 2.6 | 0.00 | 0.00 | 0.00 | 90 | 1011.3 |
| 20260509123438 | 49 | 94 | 0.9 | 1.7 | 0.00 | 0.00 | 0.00 | 89 | 1011.4 |
| 20260509122933 | 49 | 116 | 1.7 | 1.7 | 0.00 | 0.00 | 0.00 | 89 | 1011.6 |
| 20260509122431 | 49 | 107 | 1.7 | 2.6 | 0.00 | 0.00 | 0.00 | 89 | 1011.5 |
| 20260509121927 | 49 | 57 | 0.9 | 1.7 | 0.00 | 0.00 | 0.00 | 89 | 1011.4 |
| 20260509121424 | 49 | 76 | 0.0 | 0.9 | 0.00 | 0.00 | 0.00 | 90 | 1011.6 |
| 20260509120922 | 49 | 113 | 0.0 | 3.5 | 0.00 | 0.00 | 0.00 | 89 | 1011.4 |
| 20260509120420 | 49 | 129 | 2.6 | 3.5 | 0.00 | 0.00 | 0.00 | 88 | 1011.5 |
| 20260509115918 | 50 | 84 | 1.7 | 2.6 | 0.00 | 0.00 | 0.00 | 89 | 1011.5 |
| 20260509115415 | 49 | 133 | 0.0 | 1.7 | 0.00 | 0.00 | 0.00 | 91 | 1011.8 |
| 20260509114912 | 49 | 125 | 1.7 | 1.7 | 0.00 | 0.00 | 0.00 | 89 | 1011.7 |
| 20260509114411 | 48 | 61 | 0.0 | 0.9 | 0.00 | 0.00 | 0.00 | 92 | 1011.7 |
| 20260509113905 | 48 | 62 | 0.0 | 0.9 | 0.00 | 0.00 | 0.00 | 93 | 1011.8 |
| 20260509113401 | 48 | 44 | 0.0 | 1.7 | 0.00 | 0.00 | 0.00 | 93 | 1011.7 |
| 20260509112858 | 48 | 104 | 0.0 | 1.7 | 0.00 | 0.00 | 0.00 | 93 | 1011.6 |
| 20260509112355 | 48 | 121 | 0.0 | 1.7 | 0.00 | 0.00 | 0.00 | 93 | 1011.8 |
| 20260509111852 | 48 | 89 | 0.0 | 1.7 | 0.00 | 0.00 | 0.00 | 93 | 1011.7 |
| 20260509111349 | 48 | 55 | 0.0 | 0.9 | 0.00 | 0.00 | 0.00 | 92 | 1011.7 |
| 20260509110847 | 48 | 141 | 0.0 | 1.7 | 0.00 | 0.00 | 0.00 | 92 | 1011.8 |
| 20260509110343 | 48 | 119 | 0.0 | 0.9 | 0.00 | 0.00 | 0.00 | 92 | 1011.5 |
| 20260509105841 | 48 | 127 | 0.0 | 2.6 | 0.00 | 0.00 | 0.00 | 90 | 1011.4 |
| 20260509105339 | 48 | 32 | 1.7 | 2.6 | 0.00 | 0.00 | 0.00 | 89 | 1011.4 |
| 20260509104835 | 48 | 120 | 1.7 | 2.6 | 0.00 | 0.00 | 0.00 | 90 | 1011.4 |
| 20260509104332 | 48 | 47 | 0.0 | 1.7 | 0.00 | 0.00 | 0.00 | 90 | 1011.5 |
| 20260509103830 | 48 | 154 | 0.0 | 1.7 | 0.00 | 0.00 | 0.00 | 90 | 1011.6 |
| 20260509103327 | 48 | 110 | 0.0 | 2.6 | 0.00 | 0.00 | 0.00 | 90 | 1011.7 |
| 20260509102826 | 48 | 102 | 0.0 | 2.6 | 0.00 | 0.00 | 0.00 | 88 | 1011.5 |
| 20260509102322 | 47 | 117 | 2.6 | 4.3 | 0.00 | 0.00 | 0.00 | 88 | 1011.6 |
| 20260509101818 | 47 | 125 | 0.9 | 1.7 | 0.00 | 0.00 | 0.00 | 88 | 1011.5 |
| 20260509101315 | 47 | 164 | 0.0 | 1.7 | 0.00 | 0.00 | 0.00 | 88 | 1011.5 |
| 20260509100813 | 46 | 3 | 0.9 | 2.6 | 0.00 | 0.00 | 0.00 | 90 | 1011.4 |
| 20260509100309 | 46 | 126 | 0.0 | 1.7 | 0.00 | 0.00 | 0.00 | 90 | 1011.5 |
| 20260509095806 | 45 | 38 | 0.0 | 1.7 | 0.00 | 0.00 | 0.00 | 91 | 1011.6 |
| 20260509095306 | 45 | 52 | 0.9 | 2.6 | 0.00 | 0.00 | 0.00 | 92 | 1011.5 |
| 20260509094801 | 44 | 44 | 0.9 | 1.7 | 0.00 | 0.00 | 0.00 | 94 | 1011.6 |
| 20260509094257 | 44 | 93 | 1.7 | 1.7 | 0.00 | 0.00 | 0.00 | 95 | 1011.4 |
| 20260509093755 | 44 | 44 | 0.0 | 1.7 | 0.00 | 0.00 | 0.00 | 95 | 1011.7 |
| 20260509093252 | 44 | 49 | 0.0 | 1.7 | 0.00 | 0.00 | 0.00 | 95 | 1011.4 |
| 20260509092750 | 44 | 340 | 0.9 | 2.6 | 0.00 | 0.00 | 0.00 | 95 | 1011.3 |
| 20260509092248 | 44 | 70 | 0.9 | 1.7 | 0.00 | 0.00 | 0.00 | 95 | 1011.7 |
| 20260509091745 | 44 | 55 | 0.0 | 1.7 | 0.00 | 0.00 | 0.00 | 94 | 1011.5 |
| 20260509091242 | 44 | 50 | 0.9 | 1.7 | 0.00 | 0.00 | 0.00 | 94 | 1011.5 |
| 20260509090740 | 44 | 31 | 0.0 | 1.7 | 0.00 | 0.00 | 0.00 | 94 | 1011.5 |
| 20260509090236 | 44 | 352 | 0.0 | 1.7 | 0.00 | 0.00 | 0.00 | 94 | 1011.6 |
| 20260509085734 | 44 | 10 | 0.0 | 1.7 | 0.00 | 0.00 | 0.00 | 95 | 1011.5 |
| 20260509085231 | 44 | 84 | 0.9 | 1.7 | 0.00 | 0.00 | 0.00 | 95 | 1011.7 |
| 20260509084728 | 44 | 55 | 0.0 | 1.7 | 0.00 | 0.00 | 0.00 | 94 | 1011.7 |
| 20260509084224 | 44 | 89 | 0.0 | 1.7 | 0.00 | 0.00 | 0.00 | 95 | 1011.7 |
| 20260509083722 | 44 | 7 | 0.0 | 1.7 | 0.00 | 0.00 | 0.00 | 94 | 1011.7 |
| 20260509083219 | 44 | 17 | 0.0 | 1.7 | 0.00 | 0.00 | 0.00 | 94 | 1011.8 |
| 20260509082715 | 44 | 124 | 0.0 | 1.7 | 0.00 | 0.00 | 0.00 | 94 | 1011.8 |
| 20260509082212 | 44 | 31 | 0.0 | 1.7 | 0.00 | 0.00 | 0.00 | 94 | 1011.7 |
| 20260509081709 | 44 | 27 | 1.7 | 1.7 | 0.00 | 0.00 | 0.00 | 94 | 1011.9 |
| 20260509081207 | 44 | 78 | 0.0 | 1.7 | 0.00 | 0.00 | 0.00 | 94 | 1011.6 |
| 20260509080705 | 44 | 53 | 0.9 | 1.7 | 0.00 | 0.00 | 0.00 | 94 | 1011.6 |
| 20260509080202 | 44 | 60 | 0.0 | 1.7 | 0.00 | 0.00 | 0.00 | 94 | 1011.8 |
| 20260509075700 | 44 | 54 | 0.9 | 1.7 | 0.00 | 0.00 | 0.00 | 94 | 1011.6 |
| 20260509075157 | 43 | 40 | 0.0 | 1.7 | 0.00 | 0.00 | 0.00 | 95 | 1011.5 |
| 20260509074654 | 43 | 132 | 0.0 | 1.7 | 0.00 | 0.00 | 0.00 | 96 | 1011.7 |
| 20260509074151 | 43 | 29 | 0.0 | 1.7 | 0.00 | 0.00 | 0.00 | 96 | 1011.5 |
| 20260509073648 | 43 | 107 | 1.7 | 1.7 | 0.00 | 0.00 | 0.00 | 96 | 1011.6 |
| 20260509073144 | 43 | 94 | 0.9 | 1.7 | 0.00 | 0.00 | 0.00 | 96 | 1011.6 |
| 20260509072641 | 43 | 50 | 0.9 | 1.7 | 0.00 | 0.00 | 0.00 | 96 | 1011.8 |
| 20260509072137 | 43 | 47 | 0.9 | 1.7 | 0.00 | 0.00 | 0.00 | 97 | 1011.9 |
| 20260509071634 | 42 | 52 | 0.9 | 1.7 | 0.00 | 0.00 | 0.00 | 96 | 1011.5 |
| 20260509071132 | 42 | 55 | 0.0 | 0.9 | 0.00 | 0.00 | 0.00 | 97 | 1011.6 |
| 20260509070628 | 42 | 55 | 0.0 | 0.9 | 0.00 | 0.00 | 0.00 | 97 | 1011.7 |
| 20260509070124 | 42 | 88 | 0.0 | 1.7 | 0.00 | 0.00 | 0.00 | 97 | 1011.6 |
| 20260509065620 | 42 | 66 | 0.0 | 1.7 | 0.00 | 0.00 | 0.00 | 98 | 1011.7 |
| 20260509065116 | 42 | 71 | 0.9 | 1.7 | 0.00 | 0.00 | 0.00 | 98 | 1011.5 |
| 20260509064613 | 42 | 119 | 0.9 | 1.7 | 0.00 | 0.00 | 0.00 | 98 | 1011.5 |
| 20260509064112 | 41 | 38 | 0.0 | 1.7 | 0.00 | 0.00 | 0.00 | 97 | 1011.4 |
| 20260509063608 | 41 | 36 | 0.0 | 1.7 | 0.00 | 0.00 | 0.00 | 98 | 1011.5 |
| 20260509063105 | 41 | 60 | 0.9 | 1.7 | 0.00 | 0.00 | 0.00 | 98 | 1011.5 |
| 20260509062601 | 40 | 39 | 0.9 | 1.7 | 0.00 | 0.00 | 0.00 | 97 | 1011.7 |
| 20260509062059 | 41 | 36 | 0.0 | 1.7 | 0.00 | 0.00 | 0.00 | 97 | 1011.5 |
| 20260509061555 | 40 | 58 | 0.0 | 1.7 | 0.00 | 0.00 | 0.00 | 96 | 1011.8 |
| 20260509061053 | 41 | 61 | 0.0 | 1.7 | 0.00 | 0.00 | 0.00 | 96 | 1011.9 |
| 20260509060551 | 41 | 52 | 0.0 | 1.7 | 0.00 | 0.00 | 0.00 | 96 | 1011.7 |
| 20260509060046 | 41 | 34 | 0.0 | 1.7 | 0.00 | 0.00 | 0.00 | 95 | 1011.9 |
| 20260509055542 | 41 | 46 | 0.0 | 1.7 | 0.00 | 0.00 | 0.00 | 94 | 1011.8 |
| 20260509055038 | 41 | 29 | 0.9 | 2.6 | 0.00 | 0.00 | 0.00 | 94 | 1012.0 |
| 20260509054535 | 42 | 57 | 0.9 | 1.7 | 0.00 | 0.00 | 0.00 | 94 | 1012.1 |
| 20260509054033 | 42 | 25 | 0.0 | 1.7 | 0.00 | 0.00 | 0.00 | 94 | 1012.3 |
| 20260509053531 | 43 | 5 | 0.0 | 2.6 | 0.00 | 0.00 | 0.00 | 93 | 1012.3 |
| 20260509053027 | 43 | 65 | 0.9 | 1.7 | 0.00 | 0.00 | 0.00 | 92 | 1012.1 |
| 20260509052525 | 44 | 37 | 0.0 | 1.7 | 0.00 | 0.00 | 0.00 | 91 | 1011.8 |
| 20260509052023 | 44 | 32 | 0.0 | 1.7 | 0.00 | 0.00 | 0.00 | 90 | 1012.3 |
| 20260509051522 | 45 | 74 | 0.9 | 1.7 | 0.00 | 0.00 | 0.00 | 91 | 1012.4 |
| 20260509051018 | 45 | 44 | 0.0 | 1.7 | 0.00 | 0.00 | 0.00 | 90 | 1012.4 |
| 20260509050514 | 45 | 28 | 0.9 | 1.7 | 0.00 | 0.00 | 0.00 | 90 | 1012.7 |
| 20260509050011 | 46 | 87 | 0.9 | 1.7 | 0.00 | 0.00 | 0.00 | 91 | 1012.7 |
| 20260509045508 | 46 | 122 | 1.7 | 1.7 | 0.00 | 0.00 | 0.00 | 89 | 1012.5 |
| 20260509045005 | 46 | 26 | 0.9 | 1.7 | 0.00 | 0.00 | 0.00 | 89 | 1012.5 |
| 20260509044503 | 46 | 44 | 0.0 | 1.7 | 0.00 | 0.00 | 0.00 | 89 | 1012.5 |
| 20260509044000 | 46 | 147 | 0.0 | 1.7 | 0.00 | 0.00 | 0.00 | 89 | 1012.6 |
| 20260509043455 | 46 | 31 | 0.0 | 1.7 | 0.00 | 0.00 | 0.00 | 89 | 1012.6 |
| 20260509042951 | 46 | 100 | 0.0 | 1.7 | 0.00 | 0.00 | 0.00 | 89 | 1012.7 |
| 20260509042448 | 46 | 42 | 0.0 | 1.7 | 0.00 | 0.00 | 0.00 | 89 | 1012.5 |
| 20260509041944 | 46 | 66 | 0.0 | 1.7 | 0.00 | 0.00 | 0.00 | 88 | 1012.8 |
| 20260509041441 | 46 | 44 | 0.9 | 1.7 | 0.00 | 0.00 | 0.00 | 88 | 1012.8 |
| 20260509040940 | 47 | 87 | 0.9 | 1.7 | 0.00 | 0.00 | 0.00 | 88 | 1012.8 |
| 20260509040437 | 47 | 44 | 0.0 | 0.9 | 0.00 | 0.00 | 0.00 | 87 | 1012.9 |
| 20260509035934 | 47 | 46 | 0.0 | 0.9 | 0.00 | 0.00 | 0.00 | 88 | 1012.8 |
| 20260509035431 | 47 | 73 | 0.0 | 0.9 | 0.00 | 0.00 | 0.00 | 89 | 1012.8 |
| 20260509034927 | 47 | 102 | 0.0 | 1.7 | 0.00 | 0.00 | 0.00 | 88 | 1012.8 |
| 20260509034425 | 47 | 80 | 0.9 | 1.7 | 0.00 | 0.00 | 0.00 | 88 | 1012.7 |
| 20260509033922 | 47 | 67 | 0.0 | 1.7 | 0.00 | 0.00 | 0.00 | 90 | 1012.9 |
| 20260509033419 | 47 | 44 | 0.0 | 0.9 | 0.00 | 0.00 | 0.00 | 89 | 1013.0 |
| 20260509032915 | 47 | 83 | 0.9 | 1.7 | 0.00 | 0.00 | 0.00 | 90 | 1013.2 |
| 20260509032413 | 47 | 76 | 0.0 | 1.7 | 0.00 | 0.00 | 0.00 | 88 | 1013.0 |
| 20260509031911 | 47 | 90 | 0.9 | 0.9 | 0.00 | 0.00 | 0.00 | 88 | 1012.9 |
| 20260509031408 | 47 | 66 | 0.0 | 1.7 | 0.00 | 0.00 | 0.00 | 87 | 1013.0 |
| 20260509030905 | 47 | 89 | 0.0 | 0.9 | 0.00 | 0.00 | 0.00 | 88 | 1013.1 |
| 20260509030403 | 47 | 124 | 0.0 | 1.7 | 0.00 | 0.00 | 0.00 | 88 | 1012.7 |
| 20260509025900 | 47 | 52 | 0.9 | 1.7 | 0.00 | 0.00 | 0.00 | 87 | 1012.8 |
| 20260509025355 | 47 | 53 | 1.7 | 1.7 | 0.00 | 0.00 | 0.00 | 84 | 1012.9 |
| 20260509024850 | 47 | 66 | 0.0 | 0.9 | 0.00 | 0.00 | 0.00 | 85 | 1013.2 |
| 20260509024347 | 47 | 35 | 0.9 | 0.9 | 0.00 | 0.00 | 0.00 | 85 | 1012.7 |
| 20260509023844 | 47 | 44 | 0.0 | 1.7 | 0.00 | 0.00 | 0.00 | 85 | 1013.0 |
| 20260509023342 | 47 | 55 | 0.9 | 1.7 | 0.00 | 0.00 | 0.00 | 87 | 1012.9 |
| 20260509022833 | 47 | 44 | 0.0 | 1.7 | 0.00 | 0.00 | 0.00 | 85 | 1013.0 |
| 20260509022330 | 47 | 68 | 0.9 | 1.7 | 0.00 | 0.00 | 0.00 | 84 | 1012.9 |
| 20260509021826 | 47 | 55 | 0.0 | 1.7 | 0.00 | 0.00 | 0.00 | 85 | 1012.9 |
| 20260509021323 | 48 | 7 | 0.9 | 1.7 | 0.00 | 0.00 | 0.00 | 84 | 1012.7 |
| 20260509020821 | 48 | 6 | 0.9 | 1.7 | 0.00 | 0.00 | 0.00 | 85 | 1013.0 |
| 20260509020319 | 48 | 16 | 1.7 | 1.7 | 0.00 | 0.00 | 0.00 | 84 | 1012.7 |
| 20260509015816 | 48 | 44 | 0.0 | 1.7 | 0.00 | 0.00 | 0.00 | 83 | 1012.9 |
| 20260509015314 | 48 | 32 | 0.0 | 1.7 | 0.00 | 0.00 | 0.00 | 83 | 1012.8 |
| 20260509014811 | 48 | 55 | 0.0 | 0.9 | 0.00 | 0.00 | 0.00 | 83 | 1012.8 |
| 20260509014308 | 48 | 145 | 0.0 | 0.9 | 0.00 | 0.00 | 0.00 | 82 | 1013.0 |
| 20260509013804 | 48 | 55 | 0.0 | 1.7 | 0.00 | 0.00 | 0.00 | 82 | 1013.0 |
| 20260509013300 | 48 | 43 | 0.9 | 1.7 | 0.00 | 0.00 | 0.00 | 82 | 1012.8 |
| 20260509012756 | 48 | 47 | 0.9 | 1.7 | 0.00 | 0.00 | 0.00 | 81 | 1012.8 |
| 20260509012254 | 48 | 23 | 0.9 | 1.7 | 0.00 | 0.00 | 0.00 | 79 | 1012.5 |
| 20260509011751 | 48 | 44 | 0.0 | 0.9 | 0.00 | 0.00 | 0.00 | 82 | 1012.6 |
| 20260509011248 | 48 | 49 | 0.0 | 1.7 | 0.00 | 0.00 | 0.00 | 82 | 1012.7 |
| 20260509010746 | 48 | 5 | 0.9 | 1.7 | 0.00 | 0.00 | 0.00 | 80 | 1012.1 |
| 20260509010242 | 48 | 8 | 1.7 | 2.6 | 0.00 | 0.00 | 0.00 | 78 | 1012.4 |
| 20260509005740 | 49 | 11 | 0.0 | 0.9 | 0.00 | 0.00 | 0.00 | 79 | 1012.4 |
| 20260509005238 | 49 | 116 | 0.0 | 1.7 | 0.00 | 0.00 | 0.00 | 80 | 1012.4 |
| 20260509004731 | 49 | 103 | 0.0 | 1.7 | 0.00 | 0.00 | 0.00 | 79 | 1012.4 |
| 20260509004229 | 49 | 358 | 0.0 | 2.6 | 0.00 | 0.00 | 0.00 | 79 | 1012.0 |
| 20260509003727 | 50 | 31 | 0.0 | 0.9 | 0.00 | 0.00 | 0.00 | 74 | 1012.3 |
| 20260509003224 | 49 | 24 | 1.7 | 1.7 | 0.00 | 0.00 | 0.00 | 74 | 1012.4 |
| 20260509002721 | 49 | 16 | 0.9 | 1.7 | 0.00 | 0.00 | 0.00 | 74 | 1012.3 |
| 20260509002219 | 50 | 65 | 0.0 | 1.7 | 0.00 | 0.00 | 0.00 | 72 | 1012.3 |
| 20260509001716 | 50 | 32 | 0.0 | 1.7 | 0.00 | 0.00 | 0.00 | 71 | 1012.5 |
| 20260509001212 | 50 | 35 | 0.0 | 1.7 | 0.00 | 0.00 | 0.00 | 71 | 1012.0 |
| 20260509000710 | 51 | 31 | 0.0 | 1.7 | 0.00 | 0.00 | 0.00 | 70 | 1012.0 |
| 20260509000207 | 51 | 51 | 0.0 | 2.6 | 0.00 | 0.00 | 0.00 | 68 | 1012.3 |
| 20260508235704 | 52 | 23 | 0.9 | 1.7 | 0.00 | 0.00 | 0.00 | 67 | 1012.3 |
| 20260508235200 | 53 | 341 | 0.0 | 1.7 | 0.00 | 0.00 | 0.00 | 65 | 1012.0 |
| 20260508234658 | 55 | 110 | 0.0 | 1.7 | 0.00 | 0.00 | 0.00 | 59 | 1011.8 |
| 20260508234154 | 55 | 139 | 1.7 | 3.5 | 0.00 | 0.00 | 0.00 | 58 | 1012.3 |
| 20260508233654 | 55 | 145 | 1.7 | 2.6 | 0.00 | 0.00 | 0.00 | 59 | 1012.0 |
| 20260508233151 | 57 | 82 | 0.0 | 4.3 | 0.00 | 0.00 | 0.00 | 55 | 1012.0 |
| 20260508232648 | 56 | 132 | 0.0 | 2.6 | 0.00 | 0.00 | 0.00 | 55 | 1011.8 |
| 20260508232145 | 56 | 148 | 0.0 | 4.3 | 0.00 | 0.00 | 0.00 | 61 | 1012.0 |
| 20260508231643 | 57 | 101 | 2.6 | 5.2 | 0.00 | 0.00 | 0.00 | 52 | 1012.0 |
| 20260508231139 | 57 | 152 | 1.7 | 2.6 | 0.00 | 0.00 | 0.00 | 57 | 1011.9 |
| 20260508230636 | 57 | 140 | 1.7 | 6.1 | 0.00 | 0.00 | 0.00 | 53 | 1011.9 |
| 20260508230132 | 57 | 144 | 0.0 | 3.5 | 0.00 | 0.00 | 0.00 | 55 | 1011.9 |
| 20260508225631 | 58 | 143 | 1.7 | 7.0 | 0.00 | 0.00 | 0.00 | 54 | 1011.8 |
| 20260508225126 | 58 | 153 | 3.5 | 5.2 | 0.00 | 0.00 | 0.00 | 50 | 1011.8 |
| 20260508224624 | 58 | 157 | 2.6 | 7.8 | 0.00 | 0.00 | 0.00 | 50 | 1011.8 |